SCP
0 0 0 0 0 0 0 0 0 0 0 0 0 0 0 1 1 1 1 1 1 0 0 0 0 0 0 0 0 0 0 0 0 0 0 0 1 1 0 0 0 0 0 0
0 0 0 0 0 0 0 0 0 0 0 0 0 0 0 1 1 1 1 1 1 0 0 0 0 0 0 0 0 0 0 0 0 0 0 0 0 1 1 0 0 0 0 0
0 0 0 0 0 0 0 0 0 0 0 0 0 0 0 0 1 1 1 1 1 0 0 0 0 0 0 0 0 0 0 0 0 0 0 0 0 0 1 0 0 0 0 0
0 0 0 0 0 0 0 0 0 0 0 0 0 0 0 0 0 0 0 0 0 0 0 0 0 0 0 0 0 0 0 0 0 0 0 0 0 0 0 0 0 0 0 0
0 0 0 0 0 0 0 0 0 0 0 0 0 0 0 0 0 0 0 0 0 0 0 0 0 0 0 0 0 0 0 0 0 0 0 0 0 0 0 0 0 0 0 0
0 0 0 0 0 0 0 0 0 0 0 0 0 0 0 0 0 0 0 0 0 0 0 0 0 0 0 0 0 0 0 0 0 0 0 0 0 0 0 0 0 0 0 0
0 0 0 0 0 0 0 0 0 0 0 0 0 0 0 0 0 0 0 0 0 0 0 0 0 0 0 0 0 0 0 0 0 0 0 0 0 0 0 0 0 0 0 0
0 0 0 0 0 0 0 0 0 0 0 0 0 0 0 0 0 0 0 0 0 0 0 0 0 0 0 0 0 0 0 0 0 0 0 0 0 0 0 0 0 0 0 0
0 0 0 0 0 0 0 0 0 0 0 0 0 0 0 0 0 0 0 0 0 0 0 0 0 0 0 0 0 0 0 0 0 0 0 0 0 0 0 0 0 0 0 0
0 0 0 0 0 0 0 0 0 0 0 0 0 0 0 0 0 0 0 0 0 0 0 0 0 0 0 0 0 0 0 0 0 0 0 0 0 0 0 0 0 0 0 0
0 0 0 0 0 0 0 0 0 0 0 0 0 0 0 0 0 0 0 0 0 0 0 0 0 0 0 0 0 0 0 0 0 0 0 0 0 0 0 0 0 0 0 0
0 0 0 0 0 0 0 0 0 0 0 0 0 0 0 0 0 0 0 0 0 0 0 0 0 0 0 0 0 0 0 0 0 0 0 0 0 0 0 0 0 0 0 0
0 0 0 0 0 0 0 0 0 0 0 0 0 0 0 0 0 0 0 0 0 0 0 0 0 0 0 0 0 0 0 0 0 0 0 0 0 0 0 0 0 0 0 0
0 0 0 0 0 0 0 0 0 0 0 0 0 0 0 0 0 0 0 0 0 0 0 0 0 0 0 0 0 0 0 0 0 0 0 0 0 0 0 0 0 0 0 0
0 0 0 0 0 0 0 0 0 0 0 0 0 0 0 0 0 0 0 0 0 0 0 0 0 0 0 0 0 0 0 0 0 0 0 0 0 0 0 0 0 0 0 0
0 0 0 0 0 0 0 0 0 0 0 0 0 0 0 0 0 0 0 0 0 0 0 0 0 0 0 0 0 0 0 0 0 0 0 0 0 0 0 0 0 0 0 0
0 0 0 0 0 0 0 0 0 0 0 0 0 0 0 0 0 0 0 0 0 0 0 0 0 0 0 0 0 0 0 0 0 0 0 0 0 0 0 0 0 0 0 0
0 0 0 0 0 0 0 0 0 0 0 0 0 0 0 0 0 0 0 0 0 0 0 0 0 0 0 0 0 0 0 0 0 0 0 0 0 0 0 0 0 0 0 0
0 0 0 0 0 0 0 0 0 0 0 0 0 0 0 0 0 0 0 0 0 0 0 0 0 0 0 0 0 0 0 0 0 0 0 0 0 0 0 0 0 0 0 0
0 0 0 0 0 0 0 0 0 0 0 0 0 0 0 0 0 0 0 0 0 0 0 0 0 0 0 0 0 0 0 0 0 0 0 0 0 0 0 0 0 0 0 0
0 0 0 0 0 0 0 0 0 0 0 0 0 0 0 0 0 0 0 0 0 0 0 0 0 0 0 0 0 0 0 0 0 0 0 0 0 0 0 0 0 0 0 0
0 0 0 0 0 0 0 0 0 0 0 0 0 0 0 0 0 0 0 0 0 0 0 0 0 0 0 0 0 0 0 0 0 0 0 0 0 0 0 0 0 0 0 0
0 0 0 0 0 0 0 0 0 0 0 0 0 0 0 0 0 0 0 0 0 0 0 0 0 0 0 0 0 0 0 0 0 0 0 0 0 0 0 0 0 0 0 0
0 0 0 0 0 0 0 0 0 0 0 0 0 0 0 0 0 0 0 0 0 0 0 0 0 0 0 0 0 0 0 0 0 0 0 0 0 0 0 0 0 0 0 0
0 0 0 0 0 0 0 0 0 0 0 0 0 0 0 0 0 0 0 0 0 0 0 0 0 0 0 0 0 0 0 0 0 0 0 0 0 0 0 0 0 0 0 0
0 0 0 0 0 0 0 0 0 0 0 0 0 0 0 0 0 0 0 0 0 0 0 0 0 0 0 0 0 0 0 0 0 0 0 0 0 0 0 0 0 0 0 0
Wind_Speed
5 5 4 2 1 2 5 5 4 2 1 0 2 3 3 3 3 3 3 3 3 2 1 2 2 2 2 2 2 2 2 3 3 2 2 2 2 2 2 2 3 4 4 4
5 5 3 1 3 4 5 5 3 2 1 0 1 3 3 3 4 3 3 3 2 2 1 1 2 2 2 2 2 2 2 2 2 2 2 1 2 1 1 2 3 4 4 4
6 2 2 3 4 4 2 2 3 2 1 1 2 3 4 3 3 2 2 2 2 1 1 0 1 1 2 2 2 2 2 2 2 3 1 1 1 1 1 2 3 3 4 3
5 3 2 4 3 1 2 1 3 3 2 1 1 3 4 2 3 2 2 2 2 1 1 1 1 1 2 2 2 2 2 3 3 2 1 1 1 2 2 2 2 3 3 3
4 4 4 3 2 2 2 2 2 2 1 1 1 3 2 2 3 2 2 3 2 2 1 0 1 1 1 2 2 2 2 3 3 2 2 1 1 1 1 2 3 2 2 3
3 2 3 2 1 1 3 3 2 1 2 2 1 3 2 2 3 2 1 1 2 1 1 0 1 2 2 2 2 2 2 3 3 3 2 2 2 2 2 3 3 3 2 3
3 3 3 2 1 2 1 2 1 1 1 1 1 3 4 2 2 3 2 1 1 1 0 1 1 2 2 3 3 2 2 2 3 3 2 2 2 2 2 2 3 3 3 3
2 2 4 4 2 1 1 1 0 1 1 0 1 4 2 1 2 2 2 1 0 0 0 0 1 1 2 2 3 3 2 3 3 3 2 2 2 1 1 2 2 3 3 3
2 1 2 3 3 1 2 2 2 2 2 1 2 3 3 0 1 1 0 0 1 0 0 1 1 1 1 2 2 2 2 3 3 3 2 2 2 2 2 2 2 2 2 3
1 2 2 3 1 4 3 2 1 1 1 1 2 3 2 2 1 1 1 0 0 0 1 1 1 1 1 1 2 2 2 2 2 2 2 2 2 2 2 2 2 2 3 3
1 2 1 1 2 1 2 2 2 2 1 1 2 2 1 2 1 2 2 1 1 1 1 1 1 1 1 1 1 2 2 2 2 2 2 2 2 2 2 1 2 2 2 3
1 1 1 1 1 2 1 0 2 1 2 1 2 4 1 2 2 2 2 2 2 1 1 1 1 1 1 1 1 1 1 2 2 2 2 2 2 2 2 2 2 2 2 2
1 1 2 1 1 0 1 1 1 1 3 3 4 4 2 1 2 2 3 2 2 1 1 1 1 1 1 1 1 1 1 1 2 1 1 1 1 2 2 2 2 2 2 2
2 1 1 1 1 1 3 2 3 4 3 4 7 7 5 4 4 3 2 2 2 2 2 2 2 2 1 1 1 1 2 1 1 1 1 1 1 2 2 2 2 2 2 2
1 1 1 2 2 2 3 4 5 7 6 7 6 7 10 6 5 4 3 3 2 3 3 3 3 2 2 2 2 2 2 1 1 1 1 2 2 2 2 2 2 2 2 2
1 2 1 1 1 2 5 7 7 7 7 8 8 11 10 7 4 5 5 4 4 4 4 4 3 3 3 2 2 2 2 1 1 1 2 2 2 2 2 2 2 2 2 2
3 4 2 1 3 3 7 8 10 7 8 8 10 9 4 3 4 4 4 5 6 6 5 4 4 4 3 3 3 3 2 1 1 2 2 2 2 2 2 2 2 2 2 2
5 4 2 0 1 5 3 1 6 7 8 11 10 8 6 5 4 4 6 7 7 6 5 4 4 3 3 2 2 2 1 1 1 2 2 2 2 2 2 2 2 2 2 2
2 5 3 2 2 8 6 4 7 7 8 10 13 12 8 3 3 6 6 7 7 5 5 4 3 3 2 2 2 1 1 1 1 2 2 2 2 2 2 2 3 2 2 2
3 2 3 3 3 7 3 4 4 3 6 6 11 10 7 5 4 3 3 3 4 4 3 3 2 2 2 2 2 2 2 2 3 3 3 2 2 2 2 3 2 2 2 2
4 3 4 5 6 10 4 6 7 5 4 4 9 9 9 8 5 0 2 2 2 3 3 3 2 2 2 2 2 2 2 3 3 2 2 2 2 2 2 1 1 1 1 1
10 8 8 6 6 10 8 11 11 6 1 4 6 7 8 8 4 3 3 3 3 3 3 3 3 2 2 2 3 3 4 3 1 1 1 1 2 1 1 1 1 1 1 1
10 10 8 12 9 2 11 10 6 2 4 5 5 6 7 7 6 6 5 5 4 4 4 3 4 3 2 2 3 4 3 1 1 1 1 1 1 1 1 1 1 1 1 1
7 4 5 8 12 8 10 11 8 7 7 6 5 6 7 7 7 7 6 5 5 5 4 4 4 4 4 3 4 4 2 2 2 2 2 1 1 1 1 1 1 1 1 2
8 10 7 9 9 6 9 14 13 10 8 7 7 7 8 8 8 8 6 6 6 5 4 4 5 5 5 3 3 3 2 3 3 3 2 2 2 2 1 1 2 2 2 2
11 13 13 12 10 9 7 7 10 11 11 11 9 7 7 8 9 7 6 6 5 5 5 5 5 5 5 4 4 3 3 4 4 3 3 2 2 2 2 2 2 3 3 3
Wind_Direction
34 69 67 54 30 124 128 135 140 140 15 127 193 211 193 172 181 186 192 192 186 163 114 67 44 39 46 39 35 28 19 16 13 7 359 8 3 11 22 23 24 20 16 10
85 59 18 58 109 121 126 125 134 125 57 254 211 252 215 183 196 203 207 211 212 191 137 73 41 33 30 23 20 18 5 3 1 351 344 343 331 343 15 19 17 17 14 8
86 38 336 104 93 103 95 150 158 145 89 124 257 230 198 171 190 213 228 227 223 217 207 206 13 19 21 11 356 4 357 345 352 358 5 21 20 347 358 1 3 7 3 7
65 20 65 84 59 23 138 158 159 157 183 158 272 242 203 197 212 222 234 225 223 212 235 282 347 6 10 353 346 4 2 1 5 3 354 338 338 338 343 344 349 357 5 3
61 19 38 56 16 14 106 130 141 163 178 199 205 250 228 205 240 241 234 224 220 211 188 327 340 2 18 1 348 3 15 15 11 7 0 339 350 354 347 348 348 354 6 7
69 26 16 8 338 107 145 144 125 147 200 225 206 241 257 220 235 246 259 222 214 209 175 74 37 30 21 11 360 2 19 19 11 14 15 15 19 5 352 350 348 348 355 2
51 46 19 339 87 86 136 179 160 163 206 223 119 241 261 270 253 252 271 276 242 189 160 43 30 20 18 12 6 360 4 10 10 15 16 6 1 351 340 339 345 347 346 348
76 39 9 5 9 64 51 318 333 220 228 341 180 241 270 14 326 314 287 284 309 124 142 21 7 19 23 18 10 6 2 3 2 6 9 5 355 341 342 347 341 341 335 335
91 54 357 359 355 360 113 80 21 90 79 285 258 275 285 296 292 312 258 217 220 177 72 18 16 26 25 18 10 7 9 13 9 2 357 9 6 352 340 340 338 333 331 336
66 113 339 328 352 46 29 111 134 140 153 285 295 269 261 244 271 298 268 239 285 336 27 8 339 6 16 10 5 15 9 5 2 359 359 10 10 0 345 341 350 347 340 340
9 101 23 28 25 11 67 92 81 97 352 252 285 282 213 220 237 262 277 281 277 286 275 256 270 331 359 10 6 3 358 351 356 1 357 357 359 355 347 346 341 337 343 346
21 83 93 308 359 336 319 220 194 201 171 216 266 280 65 229 264 283 286 296 298 285 270 256 272 322 325 339 350 343 337 340 342 349 350 346 351 346 341 339 336 342 351 348
120 118 107 124 180 257 272 243 204 106 129 178 215 254 87 224 265 276 276 289 295 280 276 265 264 267 279 294 310 307 313 322 334 339 337 334 339 338 335 334 335 338 337 335
102 91 226 226 314 199 229 227 197 177 190 204 228 253 273 275 281 284 272 272 280 270 264 268 271 273 273 273 276 282 300 310 313 303 298 304 312 314 316 317 319 320 315 322
117 162 240 306 316 283 253 237 208 210 218 220 232 244 266 276 274 268 255 248 257 262 260 261 264 271 273 276 279 280 287 294 288 278 281 291 304 311 314 310 311 311 308 319
94 141 134 303 11 286 278 255 230 230 232 232 251 269 265 274 262 249 240 233 240 252 256 256 255 254 257 259 263 266 269 276 270 269 282 296 304 306 303 303 305 309 310 320
142 136 153 267 330 314 273 236 205 210 215 207 222 235 224 227 233 243 239 236 240 248 251 249 245 243 245 246 244 248 257 257 250 264 281 290 291 291 292 295 291 293 298 307
142 131 131 313 12 251 255 127 193 213 235 222 234 240 237 246 275 271 251 238 243 246 246 244 240 240 243 242 242 245 243 239 251 267 281 288 283 281 288 283 282 288 289 287
158 148 136 156 250 277 281 201 182 199 258 221 221 236 240 240 291 267 235 221 226 234 235 237 231 227 225 226 224 203 208 235 255 269 275 276 268 271 278 275 279 282 281 284
81 126 144 163 213 243 247 145 160 162 270 214 200 214 206 179 240 261 174 196 217 220 217 215 205 197 207 218 191 189 212 233 254 264 268 269 261 257 263 268 277 286 280 287
160 155 184 194 232 260 238 144 154 194 246 166 187 197 185 200 232 262 165 211 215 207 202 192 190 200 217 201 180 200 223 243 257 265 265 268 265 260 263 274 291 294 289 301
179 175 188 175 210 248 165 157 196 222 111 165 185 196 201 215 229 235 234 230 218 211 207 196 196 210 217 190 191 214 238 256 258 241 246 260 270 268 259 261 289 287 279 288
206 199 188 197 218 264 174 203 219 197 199 201 202 205 204 216 229 233 239 238 234 227 219 205 203 210 218 204 206 224 246 244 207 206 231 253 279 278 271 246 248 261 257 270
221 199 204 243 255 242 226 238 240 226 229 228 218 207 201 219 230 231 233 233 232 223 213 201 197 212 224 213 212 229 235 192 194 210 223 224 232 248 256 255 245 245 246 254
201 174 202 244 261 276 248 229 231 229 231 233 228 220 216 220 229 229 229 225 223 219 209 199 207 219 227 217 218 221 208 190 200 210 215 220 226 236 239 238 243 243 250 249
192 186 190 222 212 204 226 214 206 212 222 220 216 222 220 216 224 223 226 224 217 214 204 205 214 220 223 214 218 213 201 197 199 207 212 215 221 227 236 245 270 268 266 286